Location: Sant�Angelo
(45.2833°N, 9.6833°E)
Time: 23:30:58
(UTC+00:00)

Daily predictions for brighter satellites

Satellite Brightness Start Highest point End
(mag) Time Altitude Azimuth Time Altitude Azimuth Time Altitude Azimuth
NOSS 3-1 (C) 3.3 19:22:47 10° SSW 19:28:05 60° ESE 19:34:13 10° NE
NOSS 3-1 (A) 3.7 19:24:21 10° S 19:29:17 38° ESE 19:34:54 10° NE
STARLINK-1134 3.7 19:25:27 10° WNW 19:29:37 85° NNE 19:33:46 10° ESE
H-2A R/B 3.5 19:26:40 10° SSW 19:31:15 36° W 19:35:58 10° NNW
USA 186 3.8 19:29:45 10° SSW 19:31:38 20° W 19:33:35 10° NW
Abrixas rocket 1.9 19:28:54 10° WSW 19:31:49 66° SSE 19:34:45 10° ENE
STARLINK-1157 3.4 19:28:44 10° WNW 19:32:01 56° SW 19:35:18 10° SE
CREW DRAGON DEMO-1 DEB 3.4 19:30:23 10° NW 19:33:26 54° NNE 19:36:30 10° ESE
STARLINK-1135 3.6 19:30:24 10° WNW 19:34:34 89° SSW 19:38:42 10° SE
Cosmos 1464 Rocket 4.2 19:28:12 10° N 19:34:35 83° W 19:40:58 10° S
Meteor 1-4 Rocket 4.1 19:33:32 10° SE 19:35:55 18° E 19:38:18 10° NE
STARLINK-1219 4.4 19:35:52 10° SSW 19:39:28 30° SE 19:43:06 10° ENE
STARLINK-1141 3.6 19:35:24 10° WNW 19:39:33 83° SW 19:43:42 10° SE
NOSS 2-3 (C) 4.3 19:36:35 10° S 19:40:22 33° ESE 19:44:40 10° NE
Aureole 1 Rocket 3.9 19:37:35 10° N 19:41:18 36° ENE 19:46:00 10° SE
Cosmos 1782 Rocket 4.2 19:37:11 10° N 19:41:26 41° ENE 19:45:39 10° SSE
STARLINK-1211 4.3 19:40:42 10° SSW 19:44:24 32° SE 19:48:07 10° ENE
STARLINK-1140 3.7 19:40:21 10° WNW 19:44:30 77° SW 19:48:30 11° SE
Cosmos 1140 Rocket 4.2 19:40:58 10° N 19:45:54 41° ENE 19:50:40 11° SE
BREEZE M DEB (TANK) 4.4 19:39:19 10° SSW 19:47:12 30° SSE 19:50:20 10° E
Cosmos 1703 Rocket 3.6 19:43:35 10° S 19:47:49 60° E 19:52:06 10° NNE
Cosmos 614 Rocket 4.0 19:43:59 10° NNW 19:49:05 72° ENE 19:54:09 10° SSE
STARLINK-1245 4.2 19:45:36 10° SSW 19:49:22 35° SE 19:53:10 10° ENE
STARLINK-1156 3.7 19:45:21 10° WNW 19:49:29 72° SW 19:53:18 12° SE
Cosmos 1371 Rocket 4.3 19:44:36 10° S 19:49:36 45° ESE 19:54:34 10° NNE
TELKOM 3 2.8 19:47:52 10° WNW 19:49:57 59° SSW 19:51:39 15° SE
DMSP B5D2-2 4.4 19:46:49 10° N 19:52:07 73° WNW 19:57:21 10° SSW
Cosmos 1634 Rocket 4.4 19:47:40 10° N 19:53:45 47° ENE 19:59:38 11° SSE
STARLINK-1233 4.1 19:50:28 10° SSW 19:54:19 38° SE 19:58:10 10° ENE
Cosmos 1743 2.7 19:50:30 10° N 19:54:20 89° ESE 19:58:08 10° S
STARLINK-1148 3.8 19:50:20 10° WNW 19:54:27 66° SW 19:58:04 13° SE
STARLINK-1087 1.7 19:53:35 10° WNW 19:55:36 75° SSW 19:56:54 18° SE
Landsat 7 4.5 19:52:21 11° SE 19:56:35 40° ENE 20:01:02 10° N
Cosmos 1544 3.6 19:53:18 10° N 19:56:48 42° ENE 19:59:45 13° SSE
Cosmos 2082 Rocket 3.8 19:52:54 10° N 19:57:24 23° NE 20:01:52 10° E
ERBS 4.4 20:00:02 11° ESE 20:00:02 11° ESE 20:00:22 10° E
SAR-Lupe-2 4.3 19:55:52 10° NNE 19:59:09 33° E 20:02:13 11° SSE
STARLINK-1204 4.0 19:55:23 10° SSW 19:59:17 42° SE 20:03:12 10° ENE
STARLINK-1158 3.9 19:55:20 10° WNW 19:59:26 61° SW 20:02:52 14° SE
Cosmos 1908 Rocket 3.8 19:56:02 10° NNW 20:00:28 72° W 20:04:54 10° S
STARLINK-1088 4.4 19:57:36 10° NW 20:01:37 47° NNE 20:05:38 10° E
STARLINK-1238 3.9 20:00:15 10° SSW 20:04:12 45° SE 20:08:10 10° ENE
STARLINK-1162 4.0 20:00:18 10° WNW 20:04:22 56° SW 20:07:37 15° SE
ERS-1 Rocket 4.0 20:00:29 12° SE 20:04:25 32° ENE 20:08:52 10° N
STARLINK-1115 4.3 20:02:34 10° NW 20:06:37 50° NNE 20:10:33 11° E
Cosmos 1833 Rocket 3.6 20:01:26 10° NNW 20:06:39 37° NE 20:11:09 13° ESE
Cosmos 1975 2.9 20:04:51 10° N 20:08:55 68° E 20:12:22 14° SSE
STARLINK-1201 3.8 20:05:11 10° SW 20:09:11 50° SE 20:13:12 10° ENE
Tsikada Rocket 4.0 20:03:10 10° S 20:09:23 88° E 20:15:35 10° N
Spot 2 Rocket 3.6 20:05:07 12° SSE 20:09:42 66° ENE 20:14:43 10° N
STARLINK-1076 4.2 20:07:33 10° NW 20:11:37 53° NNE 20:15:20 12° ESE
CZ-2C R/B 3.6 20:07:45 10° N 20:13:11 54° WNW 20:18:37 10° SW
Meteor 2-9 Rocket 4.1 20:07:50 10° N 20:13:17 73° ENE 20:18:01 13° SSE
Cosmos 676 Rocket 4.5 20:08:32 10° NNW 20:13:36 48° ENE 20:17:33 16° SE
STARLINK-1206 3.7 20:10:07 10° SW 20:14:09 54° SE 20:18:12 10° ENE
STARLINK-1159 4.2 20:10:19 10° WNW 20:14:19 47° SW 20:17:12 17° SSE
STARLINK-1092 4.1 20:12:30 10° NW 20:16:35 56° NNE 20:20:06 14° ESE
Cosmos 389 Rocket 3.4 20:13:27 10° SSW 20:16:48 48° WNW 20:20:12 10° N
Cosmos 2056 Rocket 3.4 20:13:08 10° S 20:18:12 69° ESE 20:23:18 10° NNE
Okean 1 3.9 20:15:07 10° SSW 20:19:05 58° W 20:23:06 10° N
STARLINK-1205 3.6 20:15:02 10° SW 20:19:06 59° SE 20:23:11 10° ENE
STARLINK-1171 4.3 20:15:21 10° WNW 20:19:17 43° SW 20:22:00 18° SSE
SL-4 R/B 3.8 20:17:46 10° N 20:19:41 15° NE 20:21:32 10° E
STARLINK-1080 4.0 20:17:31 10° NW 20:21:38 60° NNE 20:24:54 15° ESE
Iridium 51 4.3 20:19:43 10° S 20:23:55 86° W 20:27:47 10° N
Cosmos 1023 Rocket 4.5 20:18:48 10° NNW 20:24:01 87° ENE 20:28:05 17° SSE
STARLINK-1218 3.5 20:19:58 10° SW 20:24:04 64° SE 20:28:10 10° ENE
STARLINK-1155 4.4 20:20:22 10° WNW 20:24:14 39° SW 20:26:47 19° SSE
ISS -1.9 20:21:32 10° NW 20:24:32 29° N 20:27:33 10° ENE
Cosmos 909 Rocket 4.4 20:17:47 10° NW 20:25:48 78° WSW 20:31:07 17° SSE
STARLINK-1090 3.9 20:22:29 10° NW 20:26:37 64° NNE 20:29:41 17° ESE
Meteor 1-19 Rocket 4.3 20:21:08 10° S 20:26:42 86° WNW 20:32:29 10° N
STARLINK-1254 3.5 20:24:56 10° SW 20:29:03 70° SE 20:33:10 10° ENE
SL-8 R/B 4.0 20:25:53 10° W 20:30:40 69° NNW 20:35:29 10° ENE
CARTOSAT-1 4.1 20:28:14 20° SE 20:30:52 46° ENE 20:35:00 10° N
Cosmos 2278 Rocket 2.3 20:25:41 10° S 20:31:11 54° ESE 20:36:43 10° NE
STARLINK-1089 3.8 20:27:28 10° NW 20:31:36 68° NNE 20:34:28 19° ESE
STARLINK-1231 3.5 20:29:54 10° SW 20:34:02 76° SE 20:38:11 10° ENE
Cosmos 1356 4.5 20:31:19 10° NNW 20:34:36 42° W 20:37:23 13° SSW
STARLINK-1107 3.7 20:32:25 10° NW 20:36:35 73° NNE 20:39:15 21° ESE
Cosmos 1437 Rocket 3.9 20:37:00 23° ESE 20:37:57 25° E 20:41:06 10° NE
STARLINK-1232 3.5 20:34:52 10° SW 20:39:00 82° SE 20:43:09 10° ENE
Meteor 1-12 Rocket 4.3 20:33:47 10° N 20:39:25 67° ENE 20:43:14 21° SSE
NOSS 2-3 (E) 3.9 20:35:40 10° SW 20:39:56 75° NW 20:45:00 10° NE
Lacrosse 5 2.8 20:35:48 10° NW 20:40:36 42° NNE 20:44:51 13° E
Terra 2.5 20:38:30 21° SE 20:41:11 41° ENE 20:45:39 10° N
STARLINK-1066 3.6 20:37:25 10° NW 20:41:35 78° NNE 20:44:02 24° ESE
STARLINK-1208 3.5 20:39:49 10° SW 20:43:58 87° SE 20:48:07 10° ENE
STARLINK-1081 3.6 20:42:24 10° WNW 20:46:34 83° NNE 20:48:49 26° ESE
IGS 5A 3.8 20:44:11 19° S 20:47:03 63° WSW 20:51:12 10° NNW
STARLINK-1271 3.6 20:44:49 10° WSW 20:48:58 87° NNW 20:53:07 10° ENE
Cosmos 1452 Rocket 3.8 20:45:55 20° SSE 20:49:12 47° ESE 20:54:16 10° NNE
STARLINK-1212 4.3 20:46:51 10° W 20:49:48 40° NNW 20:52:46 10° NE
STARLINK-1105 4.3 20:47:20 10° W 20:50:16 39° NNW 20:53:13 10° NE
STARLINK-1247 4.4 20:48:14 10° W 20:51:11 39° NNW 20:54:10 10° NE
Okean 3 3.5 20:47:56 16° S 20:51:20 85° W 20:55:40 10° N
STARLINK-1070 3.5 20:47:21 10° WNW 20:51:32 89° NNE 20:53:35 29° ESE
STARLINK-1227 4.4 20:48:42 10° W 20:51:39 39° NNW 20:54:36 10° NE
Cosmos 2142 Rocket 4.5 20:45:31 10° N 20:51:41 88° W 20:56:11 20° S
Cosmos 1300 Rocket 3.5 20:47:34 10° N 20:52:03 79° E 20:54:26 27° SSE
STARLINK-1226 4.4 20:49:34 10° W 20:52:31 38° NNW 20:55:28 10° NE
Crew Dragon 2.5 20:51:30 10° NW 20:53:14 20° NNE 20:54:14 15° NE
USA 245 4.0 20:50:55 17° SSW 20:53:26 40° WSW 20:56:27 10° NNW
STARLINK-1215 4.4 20:50:31 10° W 20:53:27 38° NNW 20:56:25 10° NE
STARLINK-1154 3.7 20:49:48 10° WSW 20:53:56 81° NNW 20:58:06 10° ENE
STARLINK-1217 4.5 20:52:18 10° W 20:55:14 37° NNW 20:58:10 10° NE
Cosmos 1420 Rocket 3.9 20:51:00 12° SSW 20:55:55 76° ESE 21:01:08 10° NNE
STARLINK-1069 3.5 20:52:20 10° WNW 20:56:30 85° SSW 20:58:22 32° SE
Cosmos 2221 Rocket 3.7 20:54:39 16° SSW 20:58:13 78° W 21:02:47 10° N
STARLINK-1197 3.7 20:54:47 10° WSW 20:58:55 76° NNW 21:03:04 10° NE
NOSS 2-3 (D) 4.4 20:55:43 10° SW 20:59:56 56° NW 21:04:58 10° NNE
Meteor 1-13 Rocket 4.1 20:56:55 19° S 21:01:03 78° E 21:06:44 10° NNE
STARLINK-1085 3.5 20:57:20 10° WNW 21:01:29 79° SW 21:03:10 35° SE
COSMOS 2406 3.6 20:56:45 10° NNW 21:02:25 57° WSW 21:05:59 22° S
MTI 4.3 20:59:36 10° NNE 21:02:33 37° E 21:02:33 37° E
Cosmos 371 Rocket 3.3 21:00:02 24° S 21:02:51 60° ESE 21:07:39 10° NNE
STARLINK-1198 3.9 20:59:45 10° WSW 21:03:52 71° NNW 21:08:02 10° NE
Resurs 01 Rocket 4.0 21:01:09 10° SW 21:04:11 18° W 21:07:14 10° NW
Meteor 2-4 Rocket 3.9 20:59:13 10° SSW 21:04:34 66° WNW 21:09:54 10° N
USA 215 3.9 20:58:39 10° E 21:04:56 51° NNE 21:11:14 10° NW
SPOT 1/Viking Rocket 4.0 21:02:31 19° S 21:06:05 56° W 21:11:10 10° NNW
STARLINK-1086 3.6 21:02:19 10° WNW 21:06:28 74° SW 21:07:57 38° SE
Cosmos 1674 Rocket 3.7 21:04:49 33° SSE 21:06:30 56° E 21:10:48 10° NNE
Abrixas rocket 3.0 21:04:35 10° W 21:07:26 45° N 21:09:44 14° ENE
STARLINK-1199 4.0 21:04:47 10° WSW 21:08:54 66° NNW 21:13:02 10° NE
CREW DRAGON DEMO-1 DEB 4.4 21:06:32 10° W 21:09:01 23° SW 21:09:01 23° SW
Meteor 1-4 Rocket 4.5 21:07:46 10° SW 21:10:45 26° WNW 21:13:45 10° NNW
STARLINK-1269 4.2 21:11:51 35° ESE 21:11:51 35° ESE 21:15:08 10° ENE
STARLINK-1095 3.6 21:07:17 10° WNW 21:11:25 68° SW 21:12:43 41° SSE
STARLINK-1210 4.1 21:09:46 10° WSW 21:13:52 62° NNW 21:18:00 10° NE
Cosmos 1378 Rocket 3.8 21:12:35 36° SE 21:13:59 51° E 21:18:16 10° NNE
SPOT 5 3.1 21:12:28 27° S 21:15:16 73° WSW 21:20:34 10° NNW
STARLINK-1200 4.0 21:16:40 39° ESE 21:16:40 39° ESE 21:20:10 10° ENE
STARLINK-1077 3.7 21:12:17 10° WNW 21:16:22 63° SW 21:17:29 43° SSE
Nadezhda 4 Rocket 4.1 21:13:37 28° SSE 21:16:50 59° E 21:22:51 10° NNE
STARLINK-1078 4.5 21:14:33 10° NW 21:18:35 46° NNE 21:21:05 21° E
STARLINK-1219 4.2 21:14:46 10° WSW 21:18:52 58° NNW 21:22:59 10° NE
STARLINK-1192 3.9 21:21:25 44° SE 21:21:25 44° SE 21:25:10 10° ENE
STARLINK-1075 3.8 21:17:16 10° WNW 21:21:21 57° SW 21:22:16 45° S
Cosmos 1741 Rocket 4.0 21:17:08 10° NNW 21:22:21 70° ENE 21:24:31 35° SE
STARLINK-1108 4.4 21:19:32 10° NW 21:23:35 49° NNE 21:25:52 23° E
STARLINK-1211 4.3 21:19:46 10° WSW 21:23:50 55° NNW 21:27:56 10° NE
Cosmos 1975 Rocket 4.4 21:23:46 24° E 21:24:13 24° E 21:27:47 10° NE
Cosmos 2279 Rocket 4.4 21:18:22 10° NNW 21:24:30 61° W 21:28:34 22° SSW
STARLINK-1244 3.7 21:26:11 48° SE 21:26:11 48° SE 21:30:09 10° ENE
STARLINK-1093 3.9 21:22:17 10° WNW 21:26:19 53° SW 21:27:04 45° S
Cosmos 2297 4.1 21:25:27 34° SSE 21:27:15 45° ESE 21:32:39 10° NE
Okean 2 Rocket 4.2 21:23:44 10° NNW 21:27:51 37° W 21:30:14 21° SW
STARLINK-1071 4.3 21:24:30 10° NW 21:28:35 52° NNE 21:30:39 26° E
STARLINK-1245 4.4 21:24:48 10° WSW 21:28:51 52° NNW 21:32:56 10° NE
STARLINK-1138 3.6 21:30:58 52° SSE 21:31:08 52° SE 21:35:10 10° ENE
STARLINK-1074 3.9 21:27:17 10° WNW 21:31:17 48° SW 21:31:51 45° SSW
STARLINK-1110 4.2 21:28:43 10° NW 21:32:48 54° NNE 21:34:41 29° E
BREEZE-M DEB (TANK) 3.8 21:19:21 10° WNW 21:33:00 88° SSW 21:35:38 30° ESE
STARLINK-1203 3.6 21:32:36 48° S 21:33:18 56° SE 21:37:26 10° ENE
ERBS 2.4 21:32:41 21° WSW 21:34:44 71° NW 21:38:03 10° NE
STARLINK-1143 3.6 21:35:45 55° SSE 21:36:05 57° SE 21:40:10 10° ENE
Cosmos 1850 Rocket 4.0 21:31:06 10° NNW 21:36:28 87° WSW 21:38:31 39° SSE
STARLINK-1124 4.1 21:34:29 10° NW 21:38:34 58° NNE 21:40:13 33° E
STARLINK-1241 3.5 21:40:29 55° S 21:41:03 62° SE 21:45:09 10° ENE
STARLINK-1088 4.2 21:37:17 10° WNW 21:41:11 41° SW 21:41:24 40° SSW
Cosmos 2082 Rocket 2.3 21:36:20 10° NNW 21:42:03 70° WSW 21:44:18 37° S
ERS-1 Rocket 4.2 21:40:28 21° SSW 21:43:09 34° W 21:47:44 10° NNW
STARLINK-1122 3.9 21:39:27 10° NW 21:43:34 62° NNE 21:45:00 37° E
Cosmos 1110 Rocket 4.1 21:43:28 43° SSE 21:44:50 56° ESE 21:49:54 10° NNE
Okean 1 Rocket 3.1 21:41:10 10° N 21:45:40 79° W 21:46:51 48° S
STARLINK-1239 3.5 21:45:15 53° SSW 21:46:01 68° SE 21:50:08 10° ENE
STARLINK-1115 4.3 21:42:18 10° WNW 21:46:08 37° SW 21:46:10 37° SW
SeaSat 1 2.3 21:41:28 10° NNE 21:46:25 74° ESE 21:48:18 38° SSW
STARLINK-1126 3.8 21:44:22 10° NW 21:48:30 66° NNE 21:49:44 42° E
Aureole 2 Rocket 2.9 21:51:13 45° NE 21:51:13 45° NE 21:53:33 10° NNE
Cosmos 1833 Rocket 3.7 21:45:27 10° NW 21:50:33 37° WSW 21:52:51 26° SSW
STARLINK-1240 3.4 21:50:02 50° SSW 21:50:59 73° SE 21:55:08 10° ENE
Cosmos 304 Rocket 3.6 21:50:10 44° S 21:51:41 82° ESE 21:56:30 10° NNE
Cosmos 1805 3.1 21:49:08 10° N 21:53:04 75° E 21:53:26 68° SE
SL-4 R/B 2.4 21:50:04 10° NW 21:52:33 38° W 21:52:33 38° W
STARLINK-1082 3.7 21:49:24 10° NW 21:53:33 71° NNE 21:54:34 48° E
EO 1 Del DPAF 3.4 21:49:59 10° NNE 21:53:37 54° E 21:53:37 54° E
Okean 2 3.6 21:53:51 50° ESE 21:54:04 51° E 21:58:05 10° NNE
Cosmos 1092 Rocket 3.9 21:52:19 38° SSE 21:54:46 72° E 22:00:54 10° NNE
Cosmos 332 Rocket 4.2 21:52:44 24° SW 21:55:37 61° WNW 22:00:30 10° NNE
STARLINK-1216 3.4 21:54:49 46° SW 21:55:57 79° SSE 22:00:07 10° ENE
Cosmos 2369 Rocket 3.4 21:57:14 25° ESE 21:57:29 26° ESE 22:02:04 10° NE
Cosmos 1455 Rocket 3.7 21:54:24 10° N 21:58:32 41° ENE 21:59:07 38° E
STARLINK-1100 3.6 21:54:22 10° NW 21:58:32 76° NNE 21:59:21 55° E
STARLINK-1237 3.4 21:59:35 41° SW 22:00:56 85° SSE 22:05:06 10° ENE
Cosmos 1066 Rocket 4.4 21:58:18 29° SSW 22:01:03 63° WNW 22:06:25 10° N
ISS -3.5 21:58:18 10° WNW 22:01:21 68° NW 22:01:21 68° NW
Cosmos 1378 3.0 22:02:30 73° WSW 22:02:43 78° W 22:06:28 10° N
STARLINK-1083 3.6 21:59:21 10° WNW 22:03:30 81° NNE 22:04:08 62° ESE
USA 238 DEB 4.5 21:56:45 10° NNW 22:03:43 50° NE 22:08:58 19° ESE
USA 238 4.5 21:56:51 10° NNW 22:03:48 50° NE 22:09:06 19° ESE
Cosmos 1842 3.6 22:05:25 49° E 22:05:25 49° E 22:09:04 10° NNE
STARLINK-1202 3.5 22:04:22 37° WSW 22:05:56 89° NW 22:10:06 10° ENE
Cosmos 1943 Rocket 2.6 22:07:35 40° SE 22:08:16 42° ESE 22:13:29 10° NE
STARLINK-1125 3.5 22:04:19 10° WNW 22:08:29 86° NNE 22:08:54 71° ESE
Cosmos 1331 Rocket 3.8 22:07:06 48° S 22:08:34 81° ESE 22:13:45 10° NNE
Cosmos 1302 Rocket 4.3 22:12:14 44° SE 22:12:53 47° ESE 22:17:58 10° NNE
STARLINK-1109 3.4 22:09:17 10° WNW 22:13:27 88° SW 22:13:40 80° SE
SL-8 R/B 4.1 22:08:47 10° WNW 22:13:34 62° N 22:17:57 12° E
Meteor 2-13 Rocket 4.5 22:12:50 43° SSE 22:14:47 65° E 22:20:54 10° NNE
Cosmos 2278 Rocket 4.1 22:10:46 10° WSW 22:15:34 28° NW 22:20:26 10° N
STARLINK-1246 3.6 22:13:54 30° WSW 22:15:53 78° NNW 22:20:02 10° NE
Cosmos 2195 Rocket 4.5 22:14:48 40° S 22:17:19 89° W 22:23:40 10° N
STARLINK-1091 3.4 22:14:16 10° WNW 22:18:26 82° SW 22:18:28 82° SSW
Terra 3.5 22:17:23 20° SW 22:19:03 24° W 22:22:56 10° NW
ALOS 2 3.2 22:19:22 42° E 22:20:02 46° ENE 22:24:15 10° N
STARLINK-1224 3.7 22:18:40 26° WSW 22:20:51 73° NNW 22:25:01 10° NE
STARLINK-1072 3.5 22:19:16 10° WNW 22:23:15 74° WSW 22:23:15 74° WSW
Lacrosse 5 2.1 22:18:49 10° WNW 22:23:41 48° SW 22:24:01 48° SW
Spot 4 3.8 22:23:24 58° S 22:24:21 81° WSW 22:29:15 10° NNW
STARLINK-1225 3.9 22:23:26 24° WSW 22:25:51 68° NNW 22:30:00 10° NE
Thor Agena Rocket 3.7 22:20:53 10° N 22:26:11 70° WNW 22:28:05 40° SW
STARLINK-1096 3.7 22:24:16 10° WNW 22:28:03 65° WSW 22:28:03 65° WSW
Cosmos 1428 Rocket 4.4 22:26:15 44° S 22:28:29 87° E 22:34:50 10° N
SL-4 R/B 4.0 22:31:54 15° N 22:31:54 15° N 22:32:23 10° N
STARLINK-1230 4.0 22:28:12 21° WSW 22:30:51 64° NNW 22:34:58 10° NE
BREEZE-M DEB (TANK) 3.5 22:18:59 10° WSW 22:31:35 75° NNW 22:35:05 10° ENE
STARLINK-1079 3.9 22:29:14 10° WNW 22:32:48 57° W 22:32:48 57° W
EXPRESS MD2 4.3 22:30:08 12° WSW 22:34:08 82° NNW 22:43:14 10° ENE
Cosmos 1544 Rocket 3.4 22:30:02 10° N 22:34:21 71° E 22:34:36 69° ESE
STARLINK-1243 4.1 22:32:59 19° WSW 22:35:50 60° NNW 22:39:56 10° NE
Cosmos 1726 3.9 22:33:27 10° NNE 22:36:25 22° ENE 22:36:25 22° ENE
Cosmos 1766 4.3 22:34:39 10° NNW 22:38:18 36° W 22:38:27 36° W
STARLINK-1116 4.1 22:34:14 10° WNW 22:37:35 50° W 22:37:35 50° W
SL-27 R/B 3.2 22:36:24 10° N 22:39:37 48° NE 22:39:37 48° NE
STARLINK-1103 4.5 22:36:31 10° NW 22:40:33 48° NNE 22:42:11 30° E
STARLINK-1236 4.2 22:37:45 17° WSW 22:40:49 56° NNW 22:44:55 10° NE
Abrixas rocket 4.4 22:40:18 10° WNW 22:41:14 18° WNW 22:41:14 18° WNW
Cosmos 1553 Rocket 3.9 22:37:14 10° N 22:43:37 81° E 22:45:31 48° SSE
Cosmos 1953 3.4 22:40:00 10° N 22:43:38 33° ENE 22:43:45 33° ENE
Cosmos 1461 3.7 22:43:04 35° W 22:44:24 49° NW 22:48:39 10° NNE
Cosmos 1340 Rocket 4.3 22:41:44 10° NNE 22:45:10 26° ENE 22:45:32 26° E
STARLINK-1101 4.4 22:41:29 10° NW 22:45:33 51° NNE 22:46:57 34° ENE
Cosmos 1271 Rocket 3.2 22:46:32 53° ENE 22:46:32 53° ENE 22:49:52 10° NNE
USA 215 3.2 22:45:48 44° SSE 22:47:52 64° SW 22:54:22 10° NW
STARLINK-1094 4.5 22:44:14 10° WNW 22:47:10 38° W 22:47:10 38° W
Cosmos 2026 Rocket 4.3 22:45:54 37° SW 22:48:21 63° W 22:54:39 10° N
STARLINK-1102 4.2 22:46:29 10° NW 22:50:34 54° NNE 22:51:45 39° ENE
STARLINK-1269 4.4 22:47:16 13° W 22:50:48 50° NNW 22:54:51 10° NE
Aureole 3 Rocket 4.0 22:46:30 10° NNW 22:51:50 81° W 22:54:05 45° S
Cosmos 1758 3.3 22:48:08 10° N 22:52:04 80° NE 22:52:04 80° NE
Cosmos 1656 Rocket 4.4 22:52:30 35° ESE 22:52:56 35° ESE 22:58:00 10° NE
Cosmos 1707 3.0 22:53:56 59° ENE 22:53:56 59° ENE 22:57:25 10° NNE
STARLINK-1111 4.1 22:51:27 10° NW 22:55:33 57° NNE 22:56:31 44° ENE
NOSS 2-2 (D) 3.7 22:57:13 51° WNW 22:57:30 52° NW 23:01:26 10° NNE
Cosmos 1900 4.2 22:52:46 10° NW 22:57:50 84° WSW 22:58:31 67° SSE
STARLINK-1073 4.0 22:56:26 10° NW 23:00:33 61° NNE 23:01:19 50° ENE
NOSS 3-2 (C) 4.2 22:54:01 10° NW 23:01:29 70° NE 23:07:07 23° SE
Cosmos 1975 Rocket 4.3 23:00:54 30° WSW 23:01:54 33° WNW 23:05:58 10° N
Cosmos 2292 Rocket 4.1 23:02:09 45° E 23:02:09 45° E 23:05:48 10° NNE
STARLINK-1121 3.9 23:01:23 10° NW 23:05:31 65° NNE 23:06:04 57° ENE
STARLINK-1106 3.8 23:06:21 10° NW 23:10:30 69° NNE 23:10:51 65° ENE
NOSS 3-4 (A) 3.8 23:10:07 40° SE 23:10:40 41° ESE 23:16:27 10° NE
NOSS 3-4 (C) 3.9 23:10:13 40° SE 23:10:46 41° ESE 23:16:33 10° NE
Cosmos 1242 Rocket 3.4 23:11:36 44° WNW 23:11:36 44° WNW 23:14:51 10° N
SL-4 R/B 4.2 23:13:39 20° E 23:13:39 20° E 23:15:37 10° ENE
Meteor 2-10 3.8 23:08:01 10° N 23:13:07 80° E 23:13:53 64° SSE
Aureole 3 4.1 23:10:52 10° N 23:13:55 38° NE 23:13:55 38° NE
STARLINK-1112 3.7 23:11:21 10° NW 23:15:31 74° NNE 23:15:39 73° NE
ATLAS 3B R/B 3.8 23:11:02 10° NNW 23:17:24 41° NE 23:23:57 10° ESE
Cosmos 2266 Rocket 3.9 23:16:09 50° SSE 23:17:47 75° E 23:23:51 10° NNE
Cosmos 1674 4.0 23:18:32 31° ENE 23:18:32 31° ENE 23:21:26 10° NNE
ATLAS CENTAUR R/B 3.3 23:20:47 20° E 23:20:47 20° E 23:22:57 10° ENE
STARLINK-1128 3.6 23:16:20 10° WNW 23:20:26 79° NNE 23:20:26 79° NNE
Cosmos 1470 3.8 23:17:24 10° NNW 23:20:37 37° WNW 23:20:37 37° WNW
CENTAUR R/B 3.3 23:13:34 10° NW 23:21:38 78° NE 23:27:41 23° SE
Cosmos 1503 Rocket 4.0 23:18:21 10° NNW 23:23:39 77° ENE 23:24:51 54° SE
STARLINK-1113 3.6 23:21:19 10° WNW 23:25:12 77° NNW 23:25:12 77° NNW
STARLINK-1119 3.7 23:26:17 10° WNW 23:29:59 70° WNW 23:29:59 70° WNW
BREEZE-M DEB (TANK) 3.3 23:28:28 10° WNW 23:31:55 71° NNE 23:37:28 10° ESE
Cosmos 1867 4.2 23:27:46 10° NNW 23:33:08 53° NE 23:36:08 25° ESE
Helios 1A 3.4 23:33:57 50° W 23:33:57 50° W 23:37:50 10° NNW
Cosmos 883 Rocket 4.4 23:29:11 10° N 23:35:23 90° E 23:37:08 50° S
STARLINK-1114 3.8 23:31:16 10° WNW 23:34:46 61° WNW 23:34:46 61° WNW
Meteor 2-19 Rocket 4.4 23:34:37 49° SSW 23:36:23 81° W 23:42:34 10° N
Cosmos 968 Rocket 3.5 23:32:26 10° NNW 23:37:32 60° WSW 23:38:01 57° SW
Cosmos 1354 Rocket 3.9 23:33:14 10° NNW 23:38:34 90° SE 23:39:37 59° SSE
ATLAS 2AS CENTAUR R/B 3.0 23:35:54 41° SSW 23:39:02 73° ESE 23:46:58 10° NE
Cosmos 1908 3.6 23:36:25 10° N 23:40:02 57° ENE 23:40:02 57° ENE
STARLINK-1130 (DARKSAT) 4.0 23:36:14 10° WNW 23:39:32 54° WNW 23:39:32 54° WNW
Cosmos 2369 Rocket 2.7 23:38:58 34° WSW 23:41:10 52° WNW 23:46:43 10° NNE
RESURS DK-1 4.4 23:43:24 18° E 23:43:24 18° E 23:45:49 10° ENE
STARLINK-1084 4.2 23:41:13 10° WNW 23:44:19 48° WNW 23:44:19 48° WNW
Cosmos 1025 Rocket 4.1 23:45:35 31° W 23:46:01 32° WNW 23:49:54 10° N
CZ-2D R/B 4.1 23:43:47 10° NE 23:46:58 16° E 23:48:55 13° ESE
NOSS 3-2 (A) 4.3 23:40:10 10° NW 23:47:33 53° WSW 23:50:12 39° SSW
Cosmos 1726 Rocket 3.8 23:44:56 10° N 23:49:12 57° ENE 23:49:40 54° ESE
Cosmos 2315 Rocket 3.9 23:44:04 10° N 23:50:18 86° W 23:52:12 48° S
STARLINK-1098 4.4 23:46:14 10° WNW 23:49:07 42° WNW 23:49:07 42° WNW
Cosmos 1943 Rocket 3.5 23:49:04 20° WSW 23:52:07 33° NW 23:57:09 10° N
Helios 1B rocket 2.3 23:48:39 10° NNE 23:52:47 85° E 23:52:51 85° SE
Meteor 2-5 Rocket 3.9 23:52:49 46° SSE 23:54:11 59° E 23:59:39 10° NNE
KORONAS-FOTON 3.8 23:55:12 75° NNE 23:55:12 75° NNE 23:58:45 10° N
ALOS 2 4.5 23:56:46 19° W 23:56:46 19° W 23:59:42 10° NW
